Flag for Canada Weather past 2 weeks in Sault Ste. Marie, Ontario, Canada

Now
52 °F

Clear.


Feels Like: 48 °F
Forecast: 48 / 72 °F
Wind: 10 mph from Northwest

Location: Sault Ste Marie

Current Time: Jul 24, 2014 at 3:26:20 AM

Latest Report: Jul 24, 2014 at 2:00 AM


Visibility: 15 mi

Pressure: 30.16 "Hg

Humidity: 88%

Dew point: 48 °F

Location of Sault Ste. MarieLocation

Historic Weather in Sault Ste. Marie — Graph

°F

Sault Ste. Marie temperature yesterday

Maximum temperature yesterday: 66 °F (at 12:00 PM)
Minimum temperature yesterday: 52 °F (at 12:00 AM)
Average temperature yesterday: 58 °F

Past Weeks' High & Low Weather Summary

 TemperatureHumidityPressure
High81 °F (Jul 20, 3:00 PM)100% (Jul 10, 6:00 AM)30.20 "Hg (Jul 10, 6:00 AM)
Low39 °F (Jul 10, 6:00 AM)39% (Jul 17, 3:00 PM)29.71 "Hg (Jul 13, 5:00 AM)
Average61 °F77%29.99 "Hg
* Reported Jul 9 2:00 AM — Jul 24 1:00 AM, Sault Ste. Marie, Weather by CustomWeather, © 2014

Note: Actual official high and low records may vary slightly from our data, if they occured in-between our weather recording intervals... More about our weather records

Advertising

Sault Ste. Marie weather history for previous 24 hours

 ConditionsComfort  
Time TempWeatherWind HumidityBarometerVisibility
1:00 AM
Jul 24
52 °FClear.9 mph88%30.16 "Hg15 mi
12:00 AM52 °FClear.12 mph82%30.16 "Hg15 mi
11:00 PM
Jul 23
52 °FClear.14 mph82%30.16 "Hg15 mi
10:00 PM52 °FSunny.9 mph82%30.16 "Hg15 mi
9:00 PM54 °FSunny.15 mph77%30.15 "Hg15 mi
8:00 PM57 °FSunny.14 mph67%30.16 "Hg15 mi
7:00 PM61 °FSunny.15 mph63%30.16 "Hg15 mi
6:00 PM63 °FSunny.23 mph59%30.16 "Hg15 mi
5:00 PM64 °FScattered clouds.18 mph64%30.17 "Hg15 mi
4:00 PM63 °FScattered clouds.16 mph64%30.17 "Hg15 mi
3:00 PM64 °FPassing clouds.16 mph68%30.17 "Hg15 mi
2:00 PM64 °FPassing clouds.16 mph68%30.16 "Hg15 mi
1:00 PM63 °FPassing clouds.20 mph68%30.16 "Hg15 mi
12:00 PM66 °FScattered clouds.10 mph56%30.15 "Hg15 mi
11:00 AM64 °FScattered clouds.9 mph60%30.16 "Hg15 mi
10:00 AM61 °FPartly sunny.12 mph68%30.16 "Hg15 mi
9:00 AM57 °FMostly cloudy.8 mph82%30.15 "Hg15 mi
8:00 AM57 °FMostly cloudy.5 mph88%30.13 "Hg15 mi
7:00 AM55 °FPassing clouds.6 mph94%30.09 "Hg15 mi
6:00 AM54 °FPassing clouds.8 mph94%30.06 "Hg15 mi
5:00 AM55 °FPassing clouds.13 mph94%30.04 "Hg15 mi
4:00 AM55 °FOvercast.9 mph94%30.03 "Hg15 mi
Weather by CustomWeather, © 2014

See weather overviewHow to use our weather pages